Flag for Germany Weather past 2 weeks in Kassel, Hesse, Germany

Now
43 °F

Light rain. Low clouds.


Feels Like: 35 °F
Forecast: 35 / 51 °F
Wind: 16 mph from Northwest

Location: Kassel / Calden

Current Time: Apr 27, 2015 at 4:55:55 PM

Latest Report: Apr 27, 2015 at 4:20 PM


Visibility: 5 mi

Pressure: 29.71 "Hg

Humidity: 100%

Dew point: 43 °F

Location of KasselLocation

Historic Weather in Kassel — Graph

°F

Kassel temperature yesterday

Maximum temperature yesterday: 63 °F (at 4:20 PM)
Minimum temperature yesterday: 50 °F (at 6:20 AM)
Average temperature yesterday: 56 °F

Past Weeks' High & Low Weather Summary

 TemperatureHumidityPressure
High73 °F (Apr 15, 3:50 PM)100% (Apr 23, 6:50 AM)30.42 "Hg (Apr 23, 6:50 AM)
Low30 °F (Apr 19, 6:20 AM)26% (Apr 21, 6:20 PM)29.56 "Hg (Apr 27, 6:20 AM)
Average52 °F62%30.10 "Hg
* Reported Apr 12 3:20 PM — Apr 27 3:20 PM, Kassel, Weather by CustomWeather, © 2015

Note: Actual official high and low records may vary slightly from our data, if they occured in-between our weather recording intervals... More about our weather records

Advertising

Kassel weather history for previous 24 hours

 ConditionsComfort  
Time TempWeatherWind HumidityBarometerVisibility
3:20 PM
Mon, Apr 27
45 °FLight rain. Low clouds.17 mph93%29.71 "Hg4 mi
2:50 PM45 °FLight rain. Low clouds.16 mph100%29.71 "HgN/A
2:20 PM45 °FFog.14 mph100%29.68 "Hg2 mi
1:50 PM45 °FDrizzle. Low clouds.15 mph100%29.68 "Hg2 mi
1:20 PM46 °FMore clouds than sun.14 mph100%29.68 "HgN/A
12:50 PM48 °FMostly cloudy.15 mph94%29.68 "Hg5 mi
12:20 PM48 °FDrizzle. Mostly cloudy.14 mph94%29.68 "Hg4 mi
11:50 AM48 °FPartly sunny.13 mph100%29.65 "Hg5 mi
11:20 AM48 °FDrizzle. Low clouds.13 mph100%29.65 "Hg3 mi
10:50 AM48 °FDrizzle. Low clouds.10 mph100%29.65 "Hg2 mi
10:20 AM50 °FDrizzle. Low clouds.13 mph94%29.62 "Hg2 mi
9:50 AM50 °FLight rain. Partly sunny.14 mph94%29.62 "Hg4 mi
9:20 AM50 °FLight rain. Low clouds.10 mph100%29.62 "Hg2 mi
8:50 AM52 °FLight rain. Low clouds.10 mph94%29.59 "Hg2 mi
8:20 AM50 °FLight rain. Partly sunny.8 mph100%29.59 "Hg2 mi
7:50 AM50 °FLight rain. Partly sunny.8 mph100%29.59 "Hg2 mi
7:20 AM50 °FLight rain. Fog.7 mph100%29.59 "Hg1 mi
6:50 AM50 °FLight rain. Fog.6 mph100%29.56 "Hg2 mi
6:20 AM50 °FLight rain. Fog.9 mph100%29.56 "Hg1 mi
9:50 PM
Sun, Apr 26
52 °FClear.3 mph100%29.68 "Hg10 mi
9:20 PM54 °FSunny.2 mph94%29.68 "Hg10 mi
8:50 PM54 °FSunny.1 mph94%29.68 "Hg10 mi
8:20 PM55 °FSunny.3 mph94%29.68 "Hg10 mi
7:50 PM57 °FScattered clouds.3 mph88%29.68 "HgN/A
7:20 PM57 °FScattered clouds.2 mph82%29.68 "HgN/A
6:50 PM57 °FPartly sunny.2 mph77%29.68 "HgN/A
6:20 PM55 °FScattered showers. Scattered clouds.8 mph88%29.68 "HgN/A
5:50 PM55 °FLight rain. Partly sunny.5 mph88%29.71 "HgN/A
5:20 PM57 °FLight rain. Scattered clouds.7 mph82%29.68 "HgN/A
4:50 PM57 °FScattered showers. Scattered clouds.12 mph77%29.71 "HgN/A
4:20 PM63 °FScattered showers. Scattered clouds.5 mph68%29.71 "HgN/A
Weather by CustomWeather, © 2015

See weather overviewHow to use our weather pages